Weather History for Marshfield, WI

Change the Weather History Date:

Saturday, October 19, 2013

  Actual Average Record
Temperature  
Mean Temperature 39 °F -  
Max Temperature 51 °F 54 °F 79 °F (2000)
Min Temperature 30 °F 32 °F 15 °F (1972)
Degree Days  
Heating Degree Days 26    
Moisture  
Dew Point 34 °F    
Average Humidity 82    
Maximum Humidity 93    
Minimum Humidity 48    
Precipitation  
Precipitation 0.08 in - - ()
Sea Level Pressure  
Sea Level Pressure 29.75 in    
Wind  
Wind Speed 4 mph (WSW)    
Max Wind Speed 17 mph    
Max Gust Speed 28 mph    
Visibility 9 miles    
Events Rain    
Averages and records for this station are not official NWS values.
T = Trace of Precipitation, MM = Missing Value Source: NWS Daily Summary

Daily Weather History Graph

Daily Weather History Graph

Search for Another Location

Airport:

Trip Planner

Search our weather history database for the weather conditions in past years. The results will help you decide how hot, cold, wet, or windy it might be!

Date:

Astronomy

Oct. 19, 2013 Rise Set
Actual Time 7:21 AM CDT 6:09 PM CDT
Civil Twilight 6:51 AM CDT 6:38 PM CDT
Nautical Twilight 6:17 AM CDT 7:12 PM CDT
Astronomical Twilight 5:44 AM CDT 7:46 PM CDT
Moon 6:33 PM CDT (10/19) 8:01 AM CDT (10/19)
Length of Visible Light 11h 46m
Length of Day
10h 47m
Waxing Gibbous, 99% of the Moon is Illuminated
Oct 19
Waxing Gibbous
Oct 26
Last Quarter
Nov 3
New
Nov 9
First Quarter
Nov 17
Full

Hourly Weather History & Observations

Time (CDT) Temp. Windchill Dew Point Humidity Pressure Visibility Wind Dir Wind Speed Gust Speed Precip Events Conditions
12:54 AM 35.1 °F 32.2 °F 32.0 °F 89% 29.88 in 10.0 mi SSW 3.5 mph - N/A   Clear
1:54 AM 34.0 °F 31.0 °F 30.9 °F 89% 29.86 in 10.0 mi SSW 3.5 mph - N/A   Mostly Cloudy
2:54 AM 34.0 °F - 30.0 °F 85% 29.84 in 10.0 mi Calm Calm - N/A   Clear
3:54 AM 33.1 °F - 28.9 °F 85% 29.82 in 10.0 mi Calm Calm - N/A   Clear
4:54 AM 33.1 °F - 28.9 °F 85% 29.80 in 10.0 mi Calm Calm - N/A   Clear
5:54 AM 32.0 °F 28.7 °F 28.0 °F 85% 29.79 in 10.0 mi SSW 3.5 mph - N/A   Clear
6:54 AM 30.0 °F 26.5 °F 28.0 °F 92% 29.79 in 10.0 mi SSW 3.5 mph - N/A   Mostly Cloudy
7:54 AM 32.0 °F 27.5 °F 30.0 °F 92% 29.79 in 10.0 mi SSW 4.6 mph - N/A   Overcast
8:54 AM 34.0 °F - 30.9 °F 89% 29.78 in 10.0 mi Calm Calm - N/A   Scattered Clouds
9:54 AM 39.9 °F 35.8 °F 34.0 °F 79% 29.77 in 10.0 mi WSW 5.8 mph - N/A   Clear
10:54 AM 44.1 °F 39.5 °F 36.0 °F 73% 29.75 in 10.0 mi SSW 8.1 mph - N/A   Scattered Clouds
11:54 AM 48.0 °F - 35.1 °F 61% 29.74 in 10.0 mi WSW 8.1 mph - N/A   Partly Cloudy
12:54 PM 48.9 °F - 30.9 °F 50% 29.71 in 10.0 mi SW 11.5 mph - N/A   Scattered Clouds
1:54 PM 48.9 °F - 30.0 °F 48% 29.69 in 10.0 mi SSW 11.5 mph 18.4 mph N/A   Mostly Cloudy
2:28 PM 39.2 °F 30.2 °F 35.6 °F 87% 29.68 in 2.5 mi West 17.3 mph 27.6 mph 0.03 in Rain Heavy Rain
2:44 PM 39.2 °F - 37.4 °F 93% 29.68 in 5.0 mi Calm Calm - 0.06 in Rain Light Rain
2:54 PM 42.1 °F 40.2 °F 37.9 °F 85% 29.71 in 10.0 mi WSW 3.5 mph - 0.06 in   Overcast
3:06 PM 44.6 °F 40.2 °F 39.2 °F 81% 29.67 in 10.0 mi SSW 8.1 mph - N/A   Mostly Cloudy
3:54 PM 44.1 °F - 39.0 °F 82% 29.70 in 6.0 mi Calm Calm - 0.00 in Rain Light Rain
4:05 PM 44.6 °F 39.2 °F 39.2 °F 81% 29.67 in 10.0 mi SSW 10.4 mph - 0.00 in Rain Light Rain
4:54 PM 42.1 °F 40.2 °F 36.0 °F 79% 29.72 in 10.0 mi West 3.5 mph - 0.02 in   Mostly Cloudy
5:04 PM 42.8 °F 41.1 °F 37.4 °F 81% 29.69 in 10.0 mi Variable 3.5 mph - N/A   Mostly Cloudy
5:54 PM 41.0 °F 39.0 °F 36.0 °F 82% 29.73 in 10.0 mi WSW 3.5 mph - N/A   Mostly Cloudy
6:54 PM 39.0 °F 36.8 °F 37.0 °F 93% 29.75 in 10.0 mi SW 3.5 mph - N/A   Overcast
7:54 PM 39.9 °F 37.8 °F 36.0 °F 86% 29.76 in 10.0 mi West 3.5 mph - N/A   Overcast
8:15 PM 41.0 °F 35.8 °F 35.6 °F 81% 29.73 in 10.0 mi WNW 8.1 mph - N/A   Overcast
8:54 PM 39.9 °F 37.8 °F 35.1 °F 83% 29.77 in 10.0 mi WNW 3.5 mph - N/A   Overcast
9:54 PM 37.0 °F 33.3 °F 33.1 °F 86% 29.78 in 10.0 mi WNW 4.6 mph - N/A   Clear
10:54 PM 35.1 °F 32.2 °F 33.1 °F 92% 29.78 in 10.0 mi WSW 3.5 mph - N/A   Clear
11:54 PM 33.1 °F 28.7 °F 30.9 °F 92% 29.78 in 10.0 mi West 4.6 mph - N/A   Clear